Torna al catalogo

STARLINK-36927

AttivoComunicazioniVLEO
NORAD 67941·PAYLOAD·🇺🇸 United States

Lanciato Feb 24, 2026 da Vandenberg Space Force Base

Loading…

Prossimi Passaggi (prossime 24 ore)

TLE

AggiornatoSource: CelesTrak SupGP

Epoca: Sep 14, 2026, 21:33 UTC

1 67941C 26037K   26257.89840278  .00012352  00000+0  44724-3 0  2576
2 67941  43.0000 201.9696 0001355 261.6495 329.3691 15.27582728    17

Traccia STARLINK-36927 in tempo reale con AllMySat

Download on the App Store